Wind_Speed
24 24 25 25 26 27 27 28 28 28 28 29 30 30 30 29 29 29 29 29 29 29 29 29 28 28 27 27 26 25 24 23 22 21 20 20 19 19 19 19 18 18 17
26 26 26 27 28 29 29 30 30 30 30 31 31 32 32 32 31 31 31 31 31 31 30 30 30 30 29 28 28 27 26 25 24 24 23 22 21 21 21 20 20 20 19
28 28 28 29 30 31 31 32 32 33 33 34 34 35 35 35 34 34 34 34 33 33 32 32 32 32 32 31 30 29 28 27 27 26 25 25 24 23 23 22 21 21 21
31 31 30 31 32 33 33 34 35 36 37 37 38 38 38 38 38 37 37 36 36 36 35 35 34 34 34 34 33 32 31 30 29 29 28 27 26 26 25 24 23 23 23
33 33 33 34 35 35 36 37 38 39 39 40 41 41 42 42 42 41 40 39 39 39 38 38 37 36 36 36 35 35 34 33 32 32 31 30 30 29 28 28 27 26 26
35 35 36 36 38 38 39 40 41 42 42 43 44 44 45 45 45 44 44 44 43 42 42 41 40 39 39 38 38 38 37 36 36 35 34 34 34 33 32 32 31 30 30
37 38 38 39 40 41 42 43 44 44 45 46 47 47 48 48 48 48 48 48 47 46 45 44 43 42 42 41 41 41 40 39 39 38 38 37 37 36 36 35 35 34 33
40 41 41 42 43 44 44 45 46 47 47 48 49 50 50 50 49 51 51 51 50 49 48 47 47 46 45 45 44 44 43 43 42 41 41 41 41 40 40 39 39 39 38
42 43 44 45 46 46 47 47 48 49 49 50 51 52 53 52 52 52 52 53 53 52 51 50 49 49 49 48 47 46 46 45 45 45 44 44 44 44 43 42 42 42 41
43 44 46 47 47 48 48 49 49 50 51 51 52 52 54 54 55 55 55 55 55 54 54 53 52 52 51 51 50 49 48 48 48 48 48 47 47 46 46 45 45 45 44
45 45 46 47 48 48 49 49 50 51 51 51 52 53 54 55 56 57 58 57 57 57 56 57 56 55 54 53 52 51 50 50 50 50 49 49 48 47 47 47 47 47 47
46 46 47 48 48 48 48 48 49 50 50 51 53 54 55 57 58 60 61 60 60 59 59 59 58 57 56 55 54 53 53 52 51 52 52 51 50 50 49 48 47 49 49
46 47 47 47 47 47 47 47 48 49 50 52 53 55 56 58 60 61 63 63 63 61 61 60 60 59 59 58 57 56 54 52 52 53 53 53 52 51 50 48 48 49 49
46 46 46 46 46 46 46 47 48 49 51 53 54 56 57 58 60 61 62 62 63 62 61 60 60 60 59 58 58 58 56 55 52 53 52 51 49 48 48 47 46 47 48
44 44 44 44 44 44 45 45 46 48 50 52 53 54 56 57 59 59 60 60 60 61 59 57 56 55 57 58 58 58 56 57 56 54 54 49 46 46 46 45 45 45 46
42 42 42 42 42 42 43 43 44 46 48 49 51 51 53 54 53 53 53 54 55 56 56 55 54 53 52 54 56 57 57 56 56 54 53 50 47 45 44 45 46 46 48
40 40 40 40 40 40 40 41 43 44 46 47 47 48 49 48 47 48 47 47 48 47 47 47 48 47 48 48 51 53 54 54 54 55 55 54 52 51 50 49 50 51 52
37 37 37 37 38 38 39 40 41 42 44 44 45 44 43 42 42 42 42 41 40 41 42 42 44 44 44 45 46 48 50 51 52 55 55 55 55 54 54 54 54 54 55
35 35 35 36 37 38 38 39 40 40 41 41 41 40 38 37 37 37 37 36 35 35 35 35 37 39 40 42 43 44 46 48 50 53 54 54 55 55 55 55 55 56 56
33 33 34 35 36 36 37 38 38 38 37 37 37 36 34 33 33 33 32 31 30 30 32 32 33 34 36 39 41 43 45 47 49 51 52 53 54 54 54 54 54 55 56
31 32 33 34 34 34 35 35 35 35 34 34 33 32 31 30 30 29 29 27 26 26 26 27 29 30 32 34 37 39 42 44 46 48 49 51 52 53 54 54 55 55 56
30 31 31 32 32 33 33 33 32 32 31 30 30 29 28 27 27 26 25 25 24 23 23 24 25 27 29 33 35 38 40 42 44 46 48 49 51 52 54 55 56 57 58
28 29 29 29 30 30 30 30 30 29 28 27 26 26 25 25 24 24 24 23 23 23 23 24 24 26 28 31 34 36 38 41 43 45 47 49 51 53 55 56 57 58 58
26 26 27 27 28 28 28 28 27 27 26 25 25 24 24 24 24 24 24 25 24 25 25 26 27 28 30 32 34 37 39 42 44 47 49 51 53 55 57 58 59 59 59
24 25 26 26 26 27 27 26 26 25 25 25 25 25 25 25 25 26 26 26 26 27 28 29 30 32 34 35 37 40 42 45 47 50 51 53 55 57 58 59 59 58 57
24 24 25 25 26 26 26 25 25 25 25 25 26 26 26 27 27 27 28 29 30 31 32 33 35 36 38 39 41 43 46 48 50 52 53 54 56 57 57 57 56 55 54
Wind_Direction
285 285 287 288 288 288 288 288 288 288 288 287 287 287 288 288 287 287 287 287 285 284 282 281 280 279 279 280 280 280 279 278 277 277 277 277 278 278 277 275 274 274 274
282 283 285 286 287 288 288 288 288 288 288 286 286 285 286 286 286 286 286 286 285 284 282 281 280 278 277 277 277 277 276 274 273 273 273 274 274 274 274 273 272 271 271
281 282 283 284 285 287 288 289 289 289 288 287 286 285 284 285 284 284 284 284 283 282 281 280 278 277 275 274 274 273 272 271 270 270 270 270 270 271 270 270 270 270 270
279 281 282 283 284 286 287 288 288 288 288 287 286 285 284 284 283 282 281 281 280 280 279 278 276 275 274 273 272 271 270 269 268 267 268 268 267 268 268 267 267 268 268
279 280 282 283 284 285 286 286 286 286 286 286 285 284 284 283 282 280 279 278 277 277 276 275 274 273 272 271 271 269 268 267 266 266 266 266 266 266 266 266 266 267 267
278 279 281 283 284 285 286 286 286 286 285 285 284 284 283 283 282 281 279 278 276 275 274 273 272 271 271 270 269 269 268 267 266 265 265 265 266 266 266 267 267 267 267
278 280 282 283 284 285 285 286 286 286 285 285 284 283 283 283 282 281 279 277 276 274 273 272 271 270 269 268 268 267 267 266 266 265 265 265 265 266 267 267 268 268 268
279 281 282 283 284 285 285 286 286 286 286 286 285 284 284 283 283 281 280 279 277 275 273 272 270 269 269 268 267 266 266 266 266 265 265 265 265 265 267 268 268 268 268
278 280 282 283 284 285 286 286 287 287 287 286 286 286 285 285 283 282 282 280 279 277 274 272 270 269 268 267 267 267 266 266 266 266 266 265 265 265 266 268 268 268 268
277 279 281 282 283 285 286 286 287 287 287 287 287 287 286 286 285 283 282 281 279 277 275 273 271 269 268 267 267 267 267 267 268 267 267 267 266 266 266 268 268 267 267
277 278 280 281 283 285 286 286 287 287 287 287 287 287 287 287 286 285 284 281 279 276 274 272 270 269 267 266 266 266 266 268 269 269 269 268 267 267 268 269 269 267 266
278 279 281 282 284 285 286 286 287 287 288 288 288 288 288 288 287 286 284 281 278 276 273 271 269 267 266 264 263 264 265 267 269 268 269 269 267 268 268 268 268 268 267
278 280 282 283 284 285 286 286 287 287 288 288 289 289 288 288 287 286 283 280 278 276 273 270 268 266 264 263 263 263 263 265 268 269 268 268 268 268 267 266 268 267 266
279 280 282 283 284 285 286 286 288 288 289 289 290 290 289 288 287 285 283 280 278 276 274 271 268 266 263 262 261 261 261 262 267 268 270 270 269 268 267 266 267 265 265
279 280 281 283 284 285 286 287 289 290 291 292 291 291 290 290 287 285 283 280 279 276 273 270 267 264 262 261 260 259 259 261 263 267 269 270 271 269 269 269 267 268 269
278 280 281 283 284 286 288 289 291 293 294 295 295 295 294 293 290 288 287 283 280 277 274 269 267 264 261 260 259 259 260 261 264 266 270 271 272 274 274 274 275 274 274
278 280 281 282 285 287 290 292 294 296 298 298 298 299 298 296 294 292 290 287 281 278 275 270 266 265 262 260 259 260 259 261 264 267 270 273 275 277 278 278 277 277 276
279 281 282 284 286 289 293 295 297 299 301 302 303 302 301 301 299 297 294 292 286 281 279 274 270 268 266 263 262 262 263 263 266 268 271 274 276 278 279 279 278 278 278
279 282 284 285 288 291 294 297 299 301 303 304 306 305 305 306 304 303 301 297 293 286 281 277 274 272 270 268 266 265 266 267 268 271 273 275 276 277 278 279 278 278 278
281 284 286 288 290 293 295 298 301 303 304 306 307 306 307 308 308 307 305 302 298 291 285 282 279 274 271 270 269 269 271 271 271 273 275 276 278 278 279 279 279 279 278
284 286 288 290 292 294 297 299 302 303 305 306 307 307 308 309 310 309 308 307 304 299 293 287 281 277 274 274 274 274 274 274 275 276 276 278 279 280 280 280 281 281 280
286 288 290 291 293 295 298 300 302 304 305 306 308 309 310 311 312 313 313 311 307 305 302 297 290 283 280 278 278 277 277 277 278 279 280 281 281 282 282 283 282 282 282
289 290 292 293 295 297 299 301 302 304 306 307 309 310 312 312 312 314 314 313 310 308 305 300 296 292 287 284 283 283 282 282 283 283 283 284 284 284 285 285 285 285 285
291 293 294 296 298 299 300 301 302 303 304 307 308 309 311 313 313 312 312 311 308 306 304 302 299 296 293 291 289 288 287 286 286 286 286 287 287 287 288 287 287 287 286
293 295 296 298 299 301 301 301 302 303 305 307 308 309 310 311 311 310 309 309 307 305 304 302 300 297 295 293 291 290 289 289 289 288 288 289 289 289 289 288 288 287 286
295 297 298 299 300 301 302 302 302 304 306 308 308 308 308 309 308 308 307 307 306 305 304 302 300 298 296 294 293 292 292 292 292 291 291 291 291 291 290 289 288 286 285
Height
5863 5861 5860 5859 5858 5857 5856 5854 5853 5851 5850 5848 5847 5845 5844 5842 5841 5839 5838 5836 5835 5833 5832 5831 5829 5828 5827 5826 5825 5824 5822 5822 5820 5819 5818 5817 5816 5815 5815 5814 5813 5813 5812
5858 5857 5856 5855 5853 5852 5850 5849 5847 5846 5845 5843 5841 5839 5838 5836 5835 5833 5832 5830 5829 5827 5826 5824 5823 5822 5821 5820 5819 5818 5817 5816 5815 5814 5813 5812 5811 5810 5810 5809 5808 5808 5807
5852 5852 5851 5849 5848 5846 5845 5843 5841 5840 5838 5837 5835 5833 5831 5830 5828 5826 5825 5823 5822 5820 5819 5817 5816 5815 5814 5813 5812 5811 5810 5809 5808 5808 5807 5806 5806 5805 5804 5803 5803 5802 5802
5846 5846 5845 5844 5842 5840 5839 5837 5835 5833 5831 5829 5828 5825 5824 5822 5821 5819 5817 5816 5814 5812 5811 5810 5808 5807 5806 5805 5804 5803 5803 5802 5801 5801 5800 5800 5799 5798 5798 5797 5797 5796 5796
5840 5839 5838 5837 5835 5833 5832 5830 5828 5826 5824 5822 5819 5817 5816 5814 5812 5811 5809 5807 5805 5804 5802 5801 5800 5799 5798 5797 5796 5795 5794 5794 5793 5793 5793 5792 5792 5791 5791 5791 5790 5790 5790
5833 5832 5831 5829 5827 5825 5824 5822 5820 5818 5816 5813 5810 5808 5807 5805 5803 5802 5800 5798 5796 5794 5792 5791 5790 5789 5788 5787 5786 5786 5785 5785 5784 5784 5784 5784 5783 5783 5783 5783 5783 5782 5782
5824 5823 5822 5821 5819 5817 5815 5812 5810 5808 5806 5803 5800 5798 5797 5795 5793 5791 5789 5787 5785 5783 5782 5781 5780 5779 5778 5777 5777 5776 5775 5775 5774 5774 5774 5774 5774 5774 5774 5774 5774 5774 5774
5815 5814 5813 5811 5809 5807 5805 5803 5800 5797 5795 5792 5789 5786 5785 5785 5782 5779 5777 5775 5774 5772 5771 5769 5768 5767 5767 5766 5766 5765 5765 5765 5764 5764 5764 5763 5764 5764 5764 5764 5764 5764 5765
5807 5805 5803 5801 5799 5797 5795 5792 5789 5786 5784 5781 5777 5774 5772 5772 5770 5767 5765 5763 5761 5760 5758 5757 5756 5755 5755 5754 5754 5754 5754 5753 5753 5753 5753 5752 5752 5753 5753 5753 5753 5754 5754
5798 5796 5794 5791 5789 5786 5784 5781 5778 5775 5772 5769 5766 5762 5759 5757 5755 5754 5752 5750 5747 5746 5745 5744 5743 5742 5742 5742 5742 5742 5742 5741 5741 5741 5741 5741 5741 5741 5741 5741 5742 5742 5743
5788 5786 5783 5781 5778 5776 5773 5770 5767 5763 5760 5757 5754 5750 5746 5743 5740 5737 5736 5736 5733 5732 5730 5729 5728 5728 5728 5728 5728 5728 5728 5728 5729 5729 5728 5728 5728 5728 5728 5729 5729 5730 5731
5777 5775 5773 5770 5768 5765 5762 5759 5755 5752 5748 5745 5741 5737 5733 5729 5726 5722 5719 5718 5716 5715 5713 5713 5713 5713 5713 5713 5713 5714 5714 5714 5714 5715 5715 5714 5715 5715 5715 5715 5716 5716 5717
5766 5764 5762 5760 5757 5754 5751 5748 5744 5741 5737 5733 5728 5724 5720 5716 5711 5706 5702 5700 5698 5698 5696 5696 5696 5696 5696 5697 5698 5699 5699 5700 5700 5699 5699 5699 5700 5700 5701 5701 5701 5702 5703
5756 5754 5751 5749 5746 5743 5740 5737 5733 5730 5725 5721 5716 5710 5705 5701 5695 5689 5685 5681 5679 5678 5678 5678 5678 5678 5679 5680 5681 5683 5684 5685 5685 5684 5684 5684 5685 5685 5686 5686 5687 5688 5689
5746 5744 5741 5739 5736 5733 5730 5726 5723 5718 5713 5708 5702 5696 5691 5685 5679 5673 5668 5664 5660 5658 5659 5660 5659 5659 5661 5662 5664 5666 5668 5669 5670 5670 5670 5669 5670 5671 5671 5672 5672 5673 5674
5736 5734 5731 5729 5726 5723 5719 5715 5711 5706 5701 5695 5689 5682 5676 5669 5663 5658 5652 5648 5644 5641 5640 5642 5642 5643 5643 5645 5648 5650 5652 5654 5655 5655 5655 5656 5656 5657 5657 5658 5659 5659 5660
5726 5724 5721 5719 5716 5712 5709 5705 5700 5695 5689 5682 5676 5669 5662 5655 5649 5644 5639 5634 5630 5626 5625 5626 5626 5627 5628 5631 5633 5635 5638 5640 5641 5642 5642 5642 5643 5643 5644 5644 5644 5644 5644
5716 5714 5712 5709 5706 5702 5699 5694 5689 5684 5677 5671 5664 5657 5650 5644 5638 5633 5628 5623 5619 5616 5614 5613 5614 5615 5616 5618 5620 5623 5625 5626 5628 5629 5629 5629 5629 5629 5629 5629 5629 5628 5628
5707 5705 5702 5699 5696 5693 5689 5684 5679 5673 5667 5660 5654 5647 5641 5635 5629 5624 5619 5614 5610 5607 5605 5604 5604 5605 5606 5608 5609 5612 5613 5615 5616 5616 5616 5616 5615 5614 5613 5613 5612 5611 5611
5698 5695 5693 5690 5687 5683 5679 5674 5669 5663 5657 5651 5645 5639 5633 5627 5622 5617 5612 5607 5603 5600 5598 5597 5596 5597 5598 5599 5600 5601 5602 5603 5603 5603 5602 5601 5600 5599 5597 5596 5595 5594 5593
5689 5686 5684 5681 5677 5674 5669 5665 5660 5654 5649 5643 5637 5632 5626 5621 5616 5611 5606 5602 5598 5595 5593 5591 5590 5590 5590 5591 5591 5591 5591 5591 5590 5590 5588 5587 5585 5584 5582 5580 5578 5577 5575
5680 5678 5675 5672 5668 5664 5660 5656 5651 5646 5641 5636 5631 5626 5620 5616 5611 5606 5602 5598 5594 5591 5588 5586 5585 5584 5583 5583 5583 5582 5581 5580 5579 5578 5575 5573 5571 5568 5565 5564 5561 5559 5556
5672 5669 5666 5663 5660 5656 5652 5648 5643 5639 5634 5629 5625 5620 5615 5611 5606 5602 5598 5594 5590 5587 5585 5582 5580 5578 5577 5576 5574 5573 5571 5569 5567 5564 5562 5558 5555 5552 5549 5546 5543 5540 5537
5664 5662 5659 5655 5652 5648 5644 5640 5636 5632 5628 5623 5619 5615 5610 5606 5602 5597 5594 5590 5586 5583 5580 5577 5575 5572 5570 5568 5565 5563 5560 5557 5554 5551 5547 5544 5539 5536 5531 5527 5524 5521 5517
5657 5654 5651 5648 5645 5641 5637 5633 5630 5626 5622 5618 5614 5609 5605 5601 5597 5593 5589 5585 5582 5578 5574 5571 5568 5565 5561 5558 5555 5552 5548 5545 5541 5537 5533 5528 5522 5518 5513 5509 5505 5501 5498
5650 5647 5644 5641 5638 5635 5631 5627 5623 5620 5616 5612 5608 5604 5600 5595 5591 5587 5583 5579 5575 5571 5567 5563 5560 5556 5552 5548 5544 5540 5535 5531 5526 5521 5516 5511 5505 5500 5495 5490 5486 5482 5479